www.pogodaiklimat.ru

Погода и климат >> Архив погоды >> Чили >> Арика


ПОГОДА в Арике

  • Прогноз погоды в Арике
  • Монитор погоды в Арике

АРХИВ ПОГОДЫ в Арике

Время (UTC), дата Ветер
(напр.,м/с)
 
Видим.   Явления Облачность Т
(С)
Тd
(С)
f
(%)
Тe
(С)
Тes
(С)
Комфортность P
(гПа)
Po
(гПа)
Тmin
(С)
Tmax
(С)
R
(мм)
R24
(мм)
S
(см)
00 18.03 ЮЗ 1 40 км ясно +20.7 +14.4 67 +25 +25 комфорт 1012.0 1007.6 +24.8
03 18.03 штиль 0 40 км ясно +20.2 +14.2 68 +22 +22 комфорт 1013.6 1009.2
06 18.03 СВ 3 40 км ясно +19.6 +13.4 67 +22 +22 комфорт 1013.2 1008.8
09 18.03 В 3 40 км ясно +18.4 +11.8 65 +19 +19 1012.1 1007.7
12 18.03 0 10 км 3/3 1200 м
[Sc diur, vesp]
+20.2 +13.0 63 1013.6 1009.2 +17.8
15 18.03 ЮЗ 4 30 км 3/0 2000 м
[Ac trans]
+23.1 +13.7 55 +26 +35 жарко 1014.7 1010.4
18 18.03 Ю 6 10 км ясно +23.1 +13.7 55 +26 +33 жарко 1013.6 1009.3
21 18.03 Ю 7 20 км ясно +23.1 +14.3 58 +27 +28 душно 1012.1 1007.8
00 19.03 ЮЗ 1 20 км ясно +20.9 +14.6 67 +25 +25 комфорт 1014.0 1009.6 +24.2
03 19.03 З 2 20 км ясно +20.8 +14.3 66 +24 +24 комфорт 1015.4 1011.0
06 19.03 З 3 20 км 10/10 1050 м
[Sc]
+20.4 +13.9 66 +23 +23 комфорт 1014.3 1009.9
09 19.03 штиль 0 20 км 3/0
[Ac trans]
+20.8 +13.4 63 +23 +23 комфорт 1012.3 1008.0
12 19.03 В 2 30 км 3/0
[Ac trans]
+21.1 +13.4 61 +23 +25 комфорт 1013.5 1009.0 +19.1
15 19.03 Ю 3 30 км 3/0
[Ac trans]
+23.0 +14.2 58 +27 +37 душно 1014.4 1010.1
18 19.03 Ю 7 30 км 6/0
[Cs]
+23.3 +13.3 53 +26 +30 жарко 1012.5 1008.2
21 19.03 ЮЗ 4 30 км 8/0
[Ac und]
+22.2 +13.7 59 +25 +26 комфорт 1012.1 1007.8
00 20.03 ЮЗ 1 40 км 8/0
[Ci fib]
+21.0 +14.0 64 +25 +25 комфорт 1013.5 1009.1 +24.0
03 20.03 В 2 30 км 5/0
[Ci fib]
+19.9 +12.0 60 +22 +22 комфорт 1014.4 1010.0
06 20.03 В 2 40 км 5/0
[Ci fib]
+18.4 +11.6 65 +19 +19 1012.4 1008.0
09 20.03 СВ 2 40 км 5/0
[Ci fib]
+18.1 +11.7 66 +19 +19 1012.3 1006.6
12 20.03 В 2 20 км 8/8 1050 м
[Sc]
+20.5 +13.3 63 +24 +24 комфорт 1014.4 1010.0 +17.2
15 20.03 ЮЗ 4 10 км 8/8 1050 м
[Sc]
+24.1 +13.5 52 +26 +29 жарко 1014.8 1010.5
18 20.03 ЮЗ 5 20 км 4/0
[Ac trans]
+24.0 +13.4 51 +26 +33 жарко 1013.3 1009.0
21 20.03 Ю 5 30 км 6/0
[Ci fib]
+23.5 +13.2 52 +26 +27 жарко 1012.1 1007.8
00 21.03 Ю 2 30 км 6/0
[Cs]
+21.4 +14.7 66 +24 +24 комфорт 1014.1 1009.8 +25.0
03 21.03 штиль 0 40 км 6/0
[Cs]
+20.3 +13.1 63 +22 +22 комфорт 1014.8 1010.4
06 21.03 СВ 2 40 км 8/0
[Ci fib]
+19.3 +11.3 60 +21 +21 комфорт 1013.2 1008.8
09 21.03 В 3 40 км 4/0
[Ci fib]
+17.5 +10.5 63 +17 +17 1011.8 1007.4
12 21.03 В 3 30 км 4/0
[Ci fib]
+19.3 +11.7 61 +21 +23 комфорт 1013.4 1009.0 +16.8
15 21.03 ЮЗ 4 30 км ясно +24.1 +13.2 51 +26 +37 жарко 1014.2 1009.9
18 21.03 ЮЗ 7 30 км ясно +24.0 +14.0 54 +26 +31 жарко 1012.1 1007.8
21 21.03 Ю 5 40 км ясно +23.0 +14.2 58 +27 +28 душно 1011.6 1007.3
00 22.03 штиль 0 30 км ясно +21.3 +14.6 66 +24 +24 комфорт 1013.4 1009.1 +24.7
06 22.03 В 3 40 км ясно +18.4 +11.3 63 +19 +19 1014.0 1009.6
09 22.03 В 3 30 км ясно +17.0 +10.7 66 +17 +17 1012.7 1008.3
12 22.03 В 2 20 км 4/0
[Ci fib]
+19.4 +11.8 61 +21 +23 комфорт 1014.1 1008.9 +16.5
15 22.03 ЮЗ 4 40 км ясно +24.5 +12.9 48 +26 +38 жарко 1014.4 1010.1
18 22.03 ЮЗ 5 20 км ясно +23.0 +14.4 58 +27 +37 душно 1013.3 1009.0
21 22.03 ЮЗ 5 30 км ясно +22.4 +13.9 59 +26 +28 жарко 1012.7 1008.4
00 23.03 СЗ 1 10 км ясно +21.1 +14.1 64 +24 +24 комфорт 1014.0 1009.6 +24.9
03 23.03 СВ 1 20 км ясно +20.1 +13.4 65 +23 +23 комфорт 1014.9 1010.5
06 23.03 СВ 2 30 км ясно +17.9 +10.6 62 +19 +19 1014.0 1009.6
09 23.03 СВ 3 40 км ясно +16.8 +10.3 65 +17 +17 1013.6 1009.2
12 23.03 В 3 30 км ясно +19.0 +11.6 62 +20 +22 1014.8 1010.4 +16.7
15 23.03 ЮЗ 5 20 км ясно +24.2 +13.0 50 +26 +36 жарко 1015.5 1011.2
18 23.03 ЮЗ 5 30 км ясно +23.3 +13.6 54 +27 +35 душно 1014.1 1009.8
21 23.03 ЮЗ 5 20 км ясно +22.7 +14.7 61 +26 +28 жарко 1013.3 1008.9
00 24.03 ЮЗ 2 20 км ясно +20.8 +15.0 69 +24 +24 комфорт 1015.0 1010.6 +24.5
03 24.03 штиль 0 20 км ясно +20.2 +14.2 68 +22 +22 комфорт 1016.6 1012.2
06 24.03 СВ 2 20 км ясно +19.1 +12.7 66 +21 +21 комфорт 1015.3 1010.9
09 24.03 СВ 1 20 км ясно +18.1 +11.5 65 +19 +19 1013.8 1009.4
12 24.03 0 30 км 5/0
[Cc]
+19.2 +12.1 63 1014.6 1010.2 +17.3
15 24.03 ЮЗ 4 30 км 4/0
[Cc]
+23.3 +13.0 52 +26 +37 жарко 1014.2 1009.9
18 24.03 ЮЗ 5 30 км ясно +23.0 +14.7 60 +27 +36 душно 1013.0 1008.7
21 24.03 ЮЗ 4 20 км ясно +22.8 +15.3 63 +27 +29 душно 1012.5 1008.2

 

Местоположение метеостанции Арика (Чили): широта -18.46 долгота -70.16 высота над уровнем моря 58 м.

В архиве по умолчанию представлена погода в Арике за последнюю неделю. Архивные данные за месяц целиком и за предыдущие месяцы, начиная с января 2011 года, Вы можете получить, выбрав интересующий диапазон дат из раскрывающегося списка и нажав кнопку "Ввод!".


*Определитесь, кто Вы:
робот инопланетянин человек

Внимание! Время в таблицах - всемирное. Для получения местного времени необходимо прибавить поправку, которая равна -4 ч.

Смотрите также архив погоды в соседних городах и на ближайших метеорологических станциях:

Погода в Арика аэропорту (Чили) (15 км)
Погода в Такне (Перу) (47 км)
Погода в Туре (Чили) (70 км)
Погода в Висвири (Чили) (121 км)
Погода в Ило (Перу) (151 км)
Погода в Мокегуа (Перу) (165 км)
Погода в Икика университете (Чили) (201 км)
Погода в Икике (Чили) (230 км)
Погода в Арекипе (Перу) (280 км)
Погода в Пуно (Перу) (293 км)

Пояснения к столбцам:

Ветер - указаны скорость ветра в м/с - средняя за 10 мин, порывы в срок и между сроками (в фигурных скобках) и направление, откуда дует ветер: С - северный, СВ - северо-восточный, В - восточный, ЮВ - юго-восточный, Ю - южный, ЮЗ - юго-западный, З - западный, СЗ - северо-западный.
Видимость - горизонтальная дальность видимости в метрах или километрах. При видимости от 1 до 10 км при отсутствии осадков обычно наблюдается дымка, при ухудшении видимости до 1 км и менее - туман. В сухую погоду видимость может ухудшаться дымом, пылью или мглою.
Явления - указаны атмосферные явления, наблюдавшиеся в срок или в последний час перед сроком; фигурными скобками обозначены явления, наблюдавшиеся между сроками (за 1-3 часа до срока); квадратными скобками обозначены град или гололедные отложения с указанием их диаметра в мм.
Облачность - указаны через наклонную черту общая и нижняя облачность в баллах и высота нижней границы облаков в метрах; квадратными скобками обозначены формы облаков: Ci - перистые, Cs - перисто-слоистые, Cc - перисто-кучевые, Ac - высококучевые, As - высокослоистые, Sc - слоисто-кучевые, Ns - слоисто-дождевые, Cu - кучевые, Cb - кучево-дождевые. Подробнее классификацию облаков см. в Атласе облаков (PDF).
T - Температура воздуха - температура, измеренная на высоте 2 м над землей.
Td - Температура точки росы - температура, при понижении до которой содержащийся в воздухе водяной пар достигнет насыщения.
f - Относительная влажность воздуха - влажноcть воздуха, измеренная на высоте 2 м над землей.
Te - Эффективная температура - температура, которую ощущает одетый по сезону человек в тени. Характеристика душности погоды. При расчете учитывается влияние влажности воздуха и скорости ветра на теплоощущения человека.
Tes - Эффективная температура на солнце - температура, которую ощущает человек, с поправкой на солнечный нагрев. Характеристика знойности погоды. Зависит от высоты солнца над горизонтом, облачности и скорости ветра. Ночью, в пасмурную погоду, а также при ветре 12 м/с и более поправка равна нулю.
P - Атмосферное давление - приведенное к уровню моря атмосферное давление.
Po - Атмосферное давление - измеренное на уровне метеостанции атмосферное давление.
Tmin - Минимальная температура - минимум температуры воздуха на высоте 2 м над землей.
Tmax - Максимальная температура - максимум температуры воздуха на высоте 2 м над землей.
R - Количество осадков - Количество выпавших осадков за период времени, мм. При наведении курсора мыши на число - период времени, за который выпало указанное количество осадков.
R24 - Количество осадков - Количество выпавших осадков за 24 часа, мм.
S - Снежный покров - Высота снежного покрова, см. При наведении курсора мыши на число - состояние снежного покрова и степень покрытия местности в баллах.